Location: Chuathbaluk
(61.5726°N, 159.2454°W)
Time: 17:15:05
(UTC+00:00)

ZACube-1 - Pass Details

Date: 25 January 2021
Orbit: 583 x 666 km, 97.6° (Epoch: 04 March)

Event Time Altitude Azimuth Distance (km) Brightness Sun altitude
Rises 03:10:40 0° 183° (S) 2,964 ? -5.6°
Reaches altitude 10° 03:12:58 10° 190° (S) 2,067 ? -5.8°
Maximum altitude 03:17:17 43° 263° (W) 936 ? -6.3°
Drops below altitude 10° 03:21:41 10° 335° (NNW) 2,106 ? -6.7°
Sets 03:24:03 0° 342° (NNW) 3,026 ? -7.0°
